sat.trackr.live / text

‹ back to catalog

QIANFAN-236

NORAD 69865 · 2026-155T

PAYLOAD ACTIVE UNKNOWN

§ Identity

Operator
Country
PRC
Launch date
2026-07-05
Launch site
WSC
Launch vehicle
Mass (kg)
RCS (m²)

External: N2YO · Heavens-Above · Gunter

§ Orbital elements

Epoch: 2026-09-20T04:50:34.586880Z

Period
106.11 min
Inclination
89.0093°
Eccentricity
0.0034519
Mean motion
13.57139917 rev/d
Perigee alt
1,020.5 km
Apogee alt
1,071.7 km
Semi-major
7,424.2 km
B*
4.3138e-5
RAAN
53.7415°
Arg perigee
11.0957°
Mean anomaly
349.0951°
Rev number
1,069

§ Raw data

QIANFAN-2361 69865U 26155T   26263.20178920  .00000043  00000+0  43138-4 0  99902 69865  89.0093  53.7415 0034519  11.0957 349.0951 13.57139917 10698

JSON: /api/v1/satellites/69865 · /tle

For live sub-satellite position, see the globe view (requires WebGL).

§ Visibility from observer

Set your observer location to see the next 7 days of passes ≥ 10°. The values pass through the URL so the page stays shareable.

No JS? Fill the form by hand. The geolocation button needs JavaScript.